Regional Weather Roundup
Issued by NWS

Home | Current Version | Previous Version | Text Only | Print | Product List | Glossary Off
Versions: 1 2 3 4 5 6 7 8 9 10 11 12 13 14 15 16 17 18 19 20 21 22 23 24 25 26 27

000
ASUS45 KBOI 230710
RWRID

IDAHO REGIONAL WEATHER ROUNDUP
NATIONAL WEATHER SERVICE BOISE ID
1200 AM MST THU NOV 23 2017

NOTE: "FAIR" INDICATES FEW OR NO CLOUDS BELOW 12000 FEET
WITH NO SIGNIFICANT WEATHER AND/OR OBSTRUCTIONS TO VISIBILITY

IDZ012-014-230800-
SOUTHWEST IDAHO


CITY           SKY/WX    TMP DP  RH WIND       PRES   REMARKS
BOISE          MOCLDY    51  47  86 S7        30.17F
CALDWELL       FOG       47  47 100 CALM      30.18F VSB 1/4
MOUNTAIN HOME  PTCLDY    51  51 100 SE13      30.20F
$$

IDZ016-017-230800-
SOUTHCENTRAL IDAHO


CITY           SKY/WX    TMP DP  RH WIND       PRES   REMARKS
BURLEY         CLEAR     50  42  74 CALM      30.25F
JEROME         CLEAR     50  43  77 NE13      30.26F
TWIN FALLS     CLEAR     56  42  59 S13       30.24F
$$

IDZ019>023-230800-
SOUTHEAST IDAHO


CITY           SKY/WX    TMP DP  RH WIND       PRES   REMARKS
IDAHO FALLS    FOG       34  34 100 N3        30.33S VSB 1/4
POCATELLO      CLOUDY    41  39  93 CALM      30.32F
REXBURG        CLOUDY    35  34  96 N3        30.33S
$$

IDZ006-010-011-018-031-032-230800-
CENTRAL IDAHO MOUNTAINS


CITY           SKY/WX    TMP DP  RH WIND       PRES   REMARKS
MCCALL         CLOUDY    37  36  96 N3        30.21F
HAILEY         CLEAR     41  36  81 N9        30.37R
STANLEY          N/A     32  30  92 CALM      30.34F
SALMON         CLOUDY    39  38  96 CALM      30.28S FOG
CHALLIS        PTCLDY    40  36  86 N3        30.27F
$$

IDZ002-004-006-007-026-230800-
NORTHERN IDAHO


CITY           SKY/WX    TMP DP  RH WIND       PRES   REMARKS
LEWISTON       CLOUDY    55  51  86 SE8       30.01F
LOWELL           N/A     46  45  96 N7        30.15F
COEUR D`ALENE  LGT RAIN  54  50  86 S7        29.99F
MULLAN PASS    CLOUDY    42  40  92 S8G17     30.07F FOG
$$




USA.gov is the U.S. government's official web portal to all federal, state and local government web resources and services.